Regional Weather Roundup
Issued by NWS State College, PA

Home | Current Version | Previous Version | Text Only | Print | Product List | Glossary On
Versions: 1 2 3 4 5 6 7 8 9 10 11 12 13 14 15 16 17 18 19 20 21 22 23 24 25 26 27 28 29 30 31 32 33 34 35 36 37 38 39 40 41 42 43 44 45 46 47 48 49 50
000
ASUS41 KCTP 300510
RWRCTP

REGIONAL WEATHER ROUNDUP
NATIONAL WEATHER SERVICE STATE COLLEGE PA
100 AM EDT TUE JUN 30 2015

Note: "fair" indicates few or no clouds below 12,000 feet with no
significant weather and/or obstructions to visibility.

* = STATION THAT DOES NOT REPORT PRECIPITATION /E.G. RAIN...SNOW...ETC/
    THUNDER OR FOG.

PAZ002>004-007>009-013>016-020>023-029>032-300600-
WESTERN PENNSYLVANIA

CITY           SKY/WX    TMP DP  RH WIND       PRES   REMARKS
ERIE           LGT RAIN  67  58  72 SE7       29.86F
MEADVILLE      LGT RAIN  62  57  83 VRB5      29.87F
FRANKLIN*      CLOUDY    61  55  82 E6        29.90S
NEW CASTLE     CLOUDY    61  60  96 CALM      29.87F
BEAVER COUNTY  NOT AVBL
BUTLER*        CLOUDY    61  57  88 E3        29.89F
PITTSBURGH INT CLOUDY    63  60  90 SE5       29.85F
PITTSBURGH     CLOUDY    61  57  87 S3        29.86F
INDIANA*       MOCLDY    63  61  94 CALM      29.93S
LATROBE        NOT AVBL
WASHINGTON CO* NOT AVBL
$$

PAZ004>006-010>012-017>019-024>028-033>037-041-042-045-046-049>053-300600-
CENTRAL PENNSYLVANIA

CITY           SKY/WX    TMP DP  RH WIND       PRES   REMARKS
BRADFORD       CLOUDY    59  55  87 SE7       29.94F
DUBOIS         CLOUDY    61  57  87 E7        29.91F
CLEARFIELD     HVY RAIN  61  59  93 NE3       29.94F FOG
JOHNSTOWN      CLOUDY    66  55  67 S8        29.93S
ALTOONA        CLOUDY    68  55  63 S6        29.92F
STATE COLLEGE  LGT RAIN  62  59  89 NE3       29.94S
WILLIAMSPORT   CLOUDY    64  61  90 CALM      29.93S
SELINSGROVE    MOCLDY    65  62  90 CALM      29.94F
FT INDIANTOWN  MOCLDY    63  60  91 CALM      29.94S
CAPITAL CITY   MOCLDY    69  58  67 E8        29.92F
HARRISBURG     MOCLDY    69  60  73 S6        29.92F
YORK           CLOUDY    70  56  61 VRB3      29.93F
$$

PAZ038>040-043-044-047-048-054-055-060>062-067>071-300600-
EASTERN PENNSYLVANIA

CITY           SKY/WX    TMP DP  RH WIND       PRES   REMARKS
SCRANTON       CLOUDY    67  59  75 E5        29.96S
MOUNT POCONO   CLOUDY    61  57  87 CALM      30.00S
ALLENTOWN      CLEAR     64  58  80 CALM      29.95S
QUAKERTOWN*    CLEAR     61  59  94 CALM      29.97S
READING        CLEAR     67  57  70 SE6       29.94S
LANCASTER      CLEAR     63  59  87 E5        29.95R
COATESVILLE    CLEAR     64  59  82 CALM      29.97S
POTTSTOWN      CLEAR     62  59  90 CALM      29.97S
BLUE BELL      CLEAR     61  61 100 CALM      29.96R
DOYLESTOWN     CLEAR     61  58  90 CALM      29.96R
WILLOW GROVE   NOT AVBL
NORTH PHILA    CLEAR     67  57  70 CALM      29.97S
PHILADELPHIA   CLEAR     71  59  65 SW5       29.96R
$$



USA.gov is the U.S. government's official web portal to all federal, state and local government web resources and services.